Regional Weather Roundup
Issued by NWS Albany, NY

Home | Current Version | Previous Version | Graphics & Text | Print | Product List | Glossary Off
Versions: 1 2 3 4 5 6 7 8 9 10 11 12 13 14 15 16 17 18 19 20 21 22 23 24 25 26 27 28 29 30 31 32 33 34 35 36 37 38 39 40 41 42 43 44 45 46 47 48 49 50

000
ASUS41 KALY 020010
RWRALY

NEW YORK STATE HOURLY WEATHER ROUNDUP
NATIONAL WEATHER SERVICE ALBANY NY
800 PM EDT WED JUL 01 2015

NOTE: "FAIR" INDICATES FEW OR NO CLOUDS BELOW 12,000 FEET WITH NO
SIGNIFICANT WEATHER AND/OR NO OBSTRUCTIONS TO VISIBILITY.

NYZ032-033-038>043-046>054-057>066-NYZ062>081-020100-
EAST


CITY           SKY/WX    TMP DP  RH WIND       PRES   REMARKS
ALBANY         PTCLDY    70  58  65 W14       29.79R
GLENS FALLS    PTCLDY    69  57  65 W10       29.74R
POUGHKEEPSIE   MOCLDY    76  60  57 W7        29.79R
NEWBURGH       PTCLDY    77  63  61 W12G28    29.81
WHITE PLAINS   CLEAR     78  57  48 W12G22    29.79R
ISLIP          MOCLDY    75  66  73 SW10      29.78R
NEW YORK CITY  PTCLDY    82  58  43 W9        29.78R
CENTRAL PARK   PTCLDY    81  57  43 VRB7      29.82R
$$

NYZ005>009-017-018-044>046-055-056-020100-
CENTRAL


CITY           SKY/WX    TMP DP  RH WIND       PRES   REMARKS
FULTON         PTCLDY    67  56  67 W10G21    29.80R
SYRACUSE       MOCLDY    69  57  65 W13G24    29.80R
ROME           CLEAR     67  58  72 W12       29.80R
ELMIRA         PTCLDY    70  60  70 W6        29.84R
BINGHAMTON     CLEAR     65  57  75 NW7       29.86R
MONTICELLO     PTCLDY    68  61  77 W7        29.86R
$$

NYZ026>034-041>043-020100-
NORTH


CITY           SKY/WX    TMP DP  RH WIND       PRES   REMARKS
WATERTOWN      PTCLDY    63  59  87 SW7       29.77R
FORT DRUM      NOT AVBL
MASSENA        MOCLDY    65  57  75 W12       29.71R
SARANAC LAKE   CLOUDY    59  57  93 W8        29.74R
PLATTSBURGH    PTCLDY    69  59  70 VRB7      29.65R
$$

NYZ001>004-010>016-019>021-020100-
WEST


CITY           SKY/WX    TMP DP  RH WIND       PRES   REMARKS
NIAGARA FALLS  PTCLDY    68  56  65 NW10      29.85R
BUFFALO        PTCLDY    65  60  84 SW12      29.86R
DUNKIRK        PTCLDY    66  58  75 SW10      29.89R
JAMESTOWN      PTCLDY    63  55  77 W5        29.93S
WELLSVILLE     PTCLDY    64  56  75 W6        29.92R
ROCHESTER      PTCLDY    70  59  68 NW6       29.84R
PENN YAN       MOCLDY    68  58  70 NW8       29.86R
$$

             KEY
       WCI = WIND CHILL INDEX
       VSB = VISIBILITY
       HX  = HEAT INDEX
$$


USA.gov is the U.S. government's official web portal to all federal, state and local government web resources and services.